TimeCDT,TemperatureF,Dew PointF,Humidity,Sea Level PressureIn,VisibilityMPH,Wind Direction,Wind SpeedMPH,Gust SpeedMPH,PrecipitationIn,Events,Conditions,WindDirDegrees,DateUTC
12:52 AM,75.9,57.0,52,29.90,10.0,NNE,10.4,-,N/A,,Clear,20,2013-06-27 05:52:00
1:52 AM,75.9,57.0,52,29.91,10.0,NE,10.4,-,N/A,,Clear,40,2013-06-27 06:52:00
2:52 AM,73.0,57.0,57,29.92,10.0,NE,9.2,-,N/A,,Clear,40,2013-06-27 07:52:00
3:52 AM,69.1,57.9,68,29.93,10.0,NE,5.8,-,N/A,,Clear,40,2013-06-27 08:52:00
4:52 AM,69.1,57.9,68,29.92,10.0,NE,5.8,-,N/A,,Clear,40,2013-06-27 09:52:00
5:52 AM,68.0,57.9,70,29.93,10.0,NNE,8.1,-,N/A,,Clear,20,2013-06-27 10:52:00
6:52 AM,68.0,57.9,70,29.95,10.0,NNE,6.9,-,N/A,,Clear,30,2013-06-27 11:52:00
7:52 AM,72.0,57.9,61,29.98,10.0,NNE,6.9,-,N/A,,Clear,30,2013-06-27 12:52:00
8:52 AM,75.9,57.0,52,30.01,10.0,NNE,8.1,-,N/A,,Clear,30,2013-06-27 13:52:00
9:52 AM,79.0,55.0,44,30.02,10.0,NE,6.9,-,N/A,,Clear,40,2013-06-27 14:52:00
10:52 AM,81.0,55.0,41,30.03,10.0,ENE,10.4,-,N/A,,Clear,70,2013-06-27 15:52:00
11:52 AM,82.9,54.0,37,30.04,10.0,NE,9.2,-,N/A,,Clear,40,2013-06-27 16:52:00
12:52 PM,84.0,53.1,34,30.04,10.0,East,6.9,-,N/A,,Clear,80,2013-06-27 17:52:00
1:52 PM,86.0,55.9,36,30.04,10.0,NE,8.1,-,N/A,,Clear,40,2013-06-27 18:52:00
2:52 PM,87.1,57.0,36,30.03,10.0,Calm,Calm,-,N/A,,Clear,0,2013-06-27 19:52:00
3:52 PM,88.0,57.0,35,30.03,10.0,Variable,3.5,-,N/A,,Clear,0,2013-06-27 20:52:00
4:52 PM,88.0,57.0,35,30.01,10.0,Calm,Calm,-,N/A,,Clear,0,2013-06-27 21:52:00
5:52 PM,90.0,57.9,34,30.00,10.0,North,6.9,-,N/A,,Clear,360,2013-06-27 22:52:00
6:52 PM,89.1,57.9,35,29.98,10.0,North,9.2,-,N/A,,Clear,360,2013-06-27 23:52:00
7:52 PM,87.1,59.0,39,29.97,10.0,North,6.9,-,N/A,,Clear,360,2013-06-28 00:52:00
8:52 PM,82.9,61.0,47,29.98,10.0,NNW,4.6,-,N/A,,Clear,330,2013-06-28 01:52:00
9:52 PM,75.0,64.0,69,30.00,10.0,NW,3.5,-,N/A,,Clear,320,2013-06-28 02:52:00
10:52 PM,72.0,64.0,76,30.02,10.0,WNW,5.8,-,N/A,,Clear,300,2013-06-28 03:52:00
11:52 PM,73.9,60.1,62,30.05,10.0,North,8.1,-,N/A,,Clear,10,2013-06-28 04:52:00